Waarnemingen

Advertentie
Mijn weer
Llanes, Spanje (8016): temperatuur & dauwpunt: 13.06.2018 02:00:00 - 19.06.2018 02:00:00 (CEST)Llanes, Spanje (8016): windsnelheid & windstoten: 13.06.2018 02:00:00 - 19.06.2018 02:00:00 (CEST)Llanes, Spanje (8016): windrichting: 13.06.2018 02:00:00 - 19.06.2018 02:00:00 (CEST)Llanes, Spanje (8016): luchtdruk: 13.06.2018 02:00:00 - 19.06.2018 02:00:00 (CEST)Llanes, Spanje (8016): zicht: 13.06.2018 02:00:00 - 19.06.2018 02:00:00 (CEST)Llanes, Spanje (8016): Zonneschijnduur: 13.06.2018 02:00:00 - 19.06.2018 02:00:00 (CEST)Llanes, Spanje (8016): neerslag: 13.06.2018 02:00:00 - 19.06.2018 02:00:00 (CEST)
Datum & Tijd tt [°C] td [°C] ff [km/u] ff [kn] fx [km/u] fx [kn] dd ppp [hPa] vv [km] sd [min] rr [mm]
19.06.2018 02:00:00 - - - - - - - - - - -
19.06.2018 01:00:00 - - - - - - - - - - -
19.06.2018 00:00:00 17,9 15,2 3 2 5 3 NW 1027,0 20 0 0,0
18.06.2018 23:00:00 18,0 15,3 3 2 11 6 ZZO 1027,0 20 0 0,0
18.06.2018 22:00:00 18,0 15,3 5 3 10 5 O 1026,9 20 0 0,0
18.06.2018 21:00:00 18,0 15,1 6 3 19 10 ZO 1026,8 20 0 0,0
18.06.2018 20:00:00 18,1 15,3 10 5 17 9 OZO 1027,0 19 0 -
18.06.2018 19:00:00 18,2 15,6 11 6 17 9 OZO 1027,1 19 0 0,0
18.06.2018 18:00:00 18,3 15,5 10 5 21 11 ONO 1027,5 5 0 0,0
18.06.2018 17:00:00 18,7 15,5 11 6 20 11 ONO 1027,6 20 0 0,0
18.06.2018 16:00:00 19,6 15,6 4 2 13 7 N 1027,6 20 0 0,0
18.06.2018 15:00:00 19,9 15,8 7 4 14 7 N 1027,7 20 0 0,0
18.06.2018 14:00:00 20,4 15,8 5 3 12 6 N 1027,4 20 0 -
18.06.2018 13:00:00 20,7 15,7 6 4 13 7 NNW 1027,3 20 31 0,0
18.06.2018 12:00:00 20,5 15,7 9 5 28 15 NNW 1027,5 20 60 0,0
18.06.2018 11:00:00 20,3 14,9 11 6 19 10 NW 1027,5 20 56 0,0
18.06.2018 10:00:00 20,3 14,9 5 3 16 8 NW 1027,5 20 60 0,0
18.06.2018 09:00:00 18,9 14,6 5 3 12 7 WNW 1027,3 20 60 0,0
18.06.2018 08:00:00 16,3 13,6 5 3 12 6 ZW 1027,3 20 19 -
18.06.2018 07:00:00 15,5 13,0 7 4 11 6 ZW 1026,9 17 0 0,0
18.06.2018 06:00:00 16,0 13,5 5 3 9 5 ZW 1026,6 18 0 0,0
18.06.2018 05:00:00 16,1 13,6 6 3 10 6 ZW 1026,8 20 0 0,0
18.06.2018 04:00:00 15,6 13,0 8 4 12 7 WZW 1026,6 20 0 0,0
18.06.2018 03:00:00 15,1 12,6 10 5 13 7 WZW 1026,7 20 0 0,0
18.06.2018 02:00:00 15,3 12,6 9 5 13 7 WZW 1026,7 20 0 -
18.06.2018 01:00:00 15,3 12,4 10 6 15 8 WZW 1026,7 18 0 0,0
18.06.2018 00:00:00 16,4 13,2 5 3 14 7 ZW 1026,8 20 0 0,0
17.06.2018 23:00:00 17,5 13,7 3 1 9 5 WZW 1026,8 20 0 0,0
17.06.2018 22:00:00 18,3 13,4 1 1 10 5 N 1026,3 20 20 0,0
17.06.2018 21:00:00 19,7 14,0 3 1 10 5 NNW 1026,1 16 56 0,0
17.06.2018 20:00:00 20,4 13,9 5 3 11 6 NNW 1026,2 20 55 -
17.06.2018 19:00:00 20,8 14,2 5 3 10 6 NNO 1025,8 20 60 0,0
17.06.2018 18:00:00 20,2 13,9 4 2 9 5 NO 1025,7 20 14 0,0
17.06.2018 17:00:00 20,1 14,2 5 3 12 6 NO 1025,7 20 4 0,0
17.06.2018 16:00:00 20,2 14,1 5 3 11 6 NNO 1025,6 20 0 0,0
17.06.2018 15:00:00 20,1 14,2 7 4 13 7 NO 1025,5 20 5 0,0
17.06.2018 14:00:00 20,0 14,8 6 3 11 6 ONO 1025,5 20 1 -
17.06.2018 13:00:00 19,8 14,6 6 3 13 7 O 1025,6 20 14 0,0
17.06.2018 12:00:00 19,7 14,7 6 3 21 11 NNW 1025,6 20 58 0,0
17.06.2018 11:00:00 19,5 14,1 11 6 17 9 NNW 1025,4 20 60 0,0
17.06.2018 10:00:00 18,9 14,1 9 5 16 8 NNW 1025,0 20 48 0,0
17.06.2018 09:00:00 17,6 14,1 6 3 15 8 W 1025,1 20 1 0,0
17.06.2018 08:00:00 16,7 13,5 4 2 8 4 W 1024,7 20 0 -
17.06.2018 07:00:00 16,5 13,3 4 2 12 6 W 1024,0 20 0 0,0
17.06.2018 06:00:00 16,6 13,4 6 4 11 6 WNW 1023,5 20 0 0,0
17.06.2018 05:00:00 16,6 13,4 4 2 9 5 ZW 1023,5 20 0 0,0
17.06.2018 04:00:00 16,6 13,6 4 2 9 5 ZW 1023,4 20 0 0,0
17.06.2018 03:00:00 16,8 13,8 3 1 8 4 W 1023,5 20 0 0,0
17.06.2018 02:00:00 16,9 13,9 4 2 8 5 WZW 1023,7 20 0 -
17.06.2018 01:00:00 17,1 13,7 5 3 9 5 WZW 1023,6 20 0 0,0
17.06.2018 00:00:00 17,1 13,5 4 2 8 4 ZW 1023,7 20 0 0,0
16.06.2018 23:00:00 17,3 13,5 2 1 9 5 WZW 1023,7 20 0 0,0
16.06.2018 22:00:00 17,6 13,4 4 2 9 5 W 1023,1 20 0 0,0
16.06.2018 21:00:00 17,6 13,2 5 3 10 5 NW 1022,9 20 0 0,0
16.06.2018 20:00:00 17,9 13,2 2 1 10 6 N 1022,4 20 0 -
16.06.2018 19:00:00 18,2 13,3 4 2 11 6 NNW 1022,1 20 0 0,0
16.06.2018 18:00:00 18,6 13,5 5 3 9 5 NNW 1021,8 20 0 0,0
16.06.2018 17:00:00 19,0 14,4 4 2 10 5 NNO 1021,6 20 0 0,0
16.06.2018 16:00:00 19,0 14,4 5 3 11 6 NO 1021,3 20 0 0,0
16.06.2018 15:00:00 18,5 14,4 5 3 9 5 ONO 1021,3 20 0 0,0
16.06.2018 14:00:00 17,7 14,2 4 2 13 7 NO 1021,6 20 0 -
16.06.2018 13:00:00 18,3 14,4 6 3 14 8 N 1021,4 20 10 0,0
16.06.2018 12:00:00 17,7 14,0 6 3 13 7 NO 1021,5 20 28 0,0
16.06.2018 11:00:00 17,8 14,7 8 4 11 6 NNW 1020,9 20 50 0,0
16.06.2018 10:00:00 17,1 14,9 4 2 14 7 NNW 1020,7 19 31 0,0
16.06.2018 09:00:00 15,8 13,9 4 2 18 10 ZW 1020,6 9 0 0,0
16.06.2018 08:00:00 15,4 13,6 3 1 10 5 WZW 1020,0 20 0 -
16.06.2018 07:00:00 15,2 13,4 6 4 10 5 WNW 1019,8 20 0 0,2
16.06.2018 06:00:00 15,2 13,4 4 2 15 8 W 1019,4 15 0 0,0
16.06.2018 05:00:00 15,3 13,5 3 2 18 10 WZW 1019,8 15 0 0,0
16.06.2018 04:00:00 15,4 13,6 3 1 9 5 WZW 1019,9 20 0 0,0
16.06.2018 03:00:00 15,3 13,5 2 1 9 5 W 1019,8 20 0 0,0
16.06.2018 02:00:00 15,2 13,4 4 2 10 6 W 1020,3 20 0 -
16.06.2018 01:00:00 15,1 13,3 2 1 9 5 Z 1020,4 20 0 0,0
16.06.2018 00:00:00 15,0 13,2 5 3 13 7 ZZW 1020,9 2,8 0 0,0
15.06.2018 23:00:00 15,1 13,3 4 2 19 10 Z 1021,1 6 0 0,0
15.06.2018 22:00:00 15,3 13,5 2 1 14 7 Z 1021,3 5 0 1,0
15.06.2018 21:00:00 15,4 13,6 5 3 20 11 NW 1021,3 1,7 0 0,6
15.06.2018 20:00:00 15,9 14,0 7 4 18 10 N 1021,2 1,5 0 -
15.06.2018 19:00:00 16,5 14,3 6 3 16 8 N 1020,8 1,6 0 0,8
15.06.2018 18:00:00 16,7 14,5 4 2 16 8 NW 1021,1 1,7 0 0,4
15.06.2018 17:00:00 16,6 14,4 5 3 23 12 NNW 1021,0 3,5 0 0,0
15.06.2018 16:00:00 17,0 14,4 8 5 23 12 NNO 1020,9 11 0 0,0
15.06.2018 15:00:00 17,8 14,9 8 4 32 17 N 1020,9 20 0 0,0
15.06.2018 14:00:00 18,8 15,3 15 8 25 13 NW 1020,6 20 0 -
15.06.2018 13:00:00 18,4 14,5 13 7 21 11 NNW 1020,2 20 0 0,0
15.06.2018 12:00:00 18,9 14,6 13 7 21 11 NW 1019,7 16 42 4,8
15.06.2018 11:00:00 18,3 14,2 10 6 19 11 NW 1019,9 20 8 0,0
15.06.2018 10:00:00 17,6 13,6 10 5 17 9 NW 1020,1 20 0 0,0
15.06.2018 09:00:00 17,1 13,9 7 4 14 8 WNW 1019,6 20 11 0,0
15.06.2018 08:00:00 16,1 13,3 3 2 8 5 W 1019,6 20 0 -
15.06.2018 07:00:00 15,6 12,7 5 3 10 5 W 1019,1 19 0 0,0
15.06.2018 06:00:00 15,5 12,6 6 4 13 7 WZW 1018,9 20 0 0,0
15.06.2018 05:00:00 15,6 12,7 8 4 12 6 WZW 1018,9 19 0 0,0
15.06.2018 04:00:00 16,0 13,0 6 3 10 6 ZZW 1019,2 20 0 0,0
15.06.2018 03:00:00 16,1 13,1 5 3 11 6 ZW 1019,5 20 0 0,0
15.06.2018 02:00:00 - - - - - - - - - - -
15.06.2018 01:00:00 15,8 12,7 8 5 14 8 ZW 1020,5 20 0 0,0
15.06.2018 00:00:00 15,9 12,4 7 4 23 12 WZW 1020,4 20 0 0,0
14.06.2018 23:00:00 17,0 12,7 3 2 12 6 Z 1020,4 20 0 0,0
14.06.2018 22:00:00 17,8 13,4 7 4 13 7 OZO 1020,1 20 0 0,0
14.06.2018 21:00:00 18,1 13,4 5 3 10 6 O 1020,3 20 0 0,0
14.06.2018 20:00:00 18,5 13,4 5 3 10 6 ONO 1020,4 20 1 -
14.06.2018 19:00:00 19,4 13,6 5 3 11 6 NO 1020,4 20 51 0,0
14.06.2018 18:00:00 19,8 13,5 9 5 16 9 NO 1020,6 20 60 0,0
14.06.2018 17:00:00 20,0 13,5 6 3 13 7 ONO 1020,2 20 60 0,0
14.06.2018 16:00:00 19,9 13,2 9 5 14 7 NO 1020,6 20 60 0,0
14.06.2018 15:00:00 19,6 13,3 7 4 12 7 ONO 1020,7 20 40 0,0
14.06.2018 14:00:00 19,2 13,4 3 2 12 7 N 1021,3 20 0 -
14.06.2018 13:00:00 19,0 13,2 8 4 14 7 NNW 1021,6 20 35 0,0
14.06.2018 12:00:00 18,6 13,1 4 2 13 7 N 1021,4 20 60 0,0
14.06.2018 11:00:00 18,1 13,0 10 5 16 9 NW 1021,1 20 55 0,0
14.06.2018 10:00:00 17,6 13,0 9 5 15 8 NW 1021,3 20 60 0,0
14.06.2018 09:00:00 16,7 12,8 7 4 13 7 WNW 1021,1 20 60 0,0
14.06.2018 08:00:00 13,9 11,1 9 5 13 7 WZW 1020,6 20 36 -
14.06.2018 07:00:00 13,3 11,0 8 5 15 8 ZW 1020,7 20 0 0,0
14.06.2018 06:00:00 13,3 10,9 8 4 16 9 WZW 1020,6 19 0 0,0
14.06.2018 05:00:00 13,6 11,1 9 5 13 7 ZW 1020,8 20 0 0,0
14.06.2018 04:00:00 13,6 10,8 9 5 12 7 ZW 1021,3 20 0 0,0
14.06.2018 03:00:00 13,9 11,2 8 4 12 7 ZW 1021,6 20 0 0,0
14.06.2018 02:00:00 14,4 11,8 8 4 12 6 ZW 1022,1 20 0 -
14.06.2018 01:00:00 14,8 11,9 8 4 11 6 ZW 1022,4 17 0 0,0
14.06.2018 00:00:00 16,0 12,7 5 3 9 5 WZW 1022,6 19 0 0,0
13.06.2018 23:00:00 16,6 13,0 4 2 9 5 WZW 1022,9 17 0 0,0
13.06.2018 22:00:00 16,9 12,6 5 3 11 6 NW 1022,3 20 0 0,0
13.06.2018 21:00:00 17,7 12,8 8 5 16 9 NW 1022,4 20 24 0,0
13.06.2018 20:00:00 18,7 13,6 6 3 11 6 NNW 1022,2 20 51 -
13.06.2018 19:00:00 18,4 13,3 6 3 13 7 NNW 1022,2 20 12 0,0
13.06.2018 18:00:00 18,8 13,3 9 5 15 8 NW 1022,6 20 21 0,0
13.06.2018 17:00:00 18,4 13,1 10 5 21 11 NW 1023,2 20 5 0,0
13.06.2018 16:00:00 17,9 13,0 11 6 22 12 NW 1023,3 20 0 0,0
13.06.2018 15:00:00 17,7 13,3 16 9 27 15 NW 1023,3 20 5 0,0
13.06.2018 14:00:00 18,3 13,6 19 10 27 15 NW 1023,4 17 51 -
13.06.2018 13:00:00 18,7 13,8 15 8 29 16 NW 1023,3 20 46 0,0
13.06.2018 12:00:00 18,2 12,8 17 9 26 14 NW 1023,3 20 37 0,0
13.06.2018 11:00:00 18,0 13,1 11 6 24 13 NW 1023,1 20 46 0,0
13.06.2018 10:00:00 17,5 12,8 10 6 21 11 NW 1023,0 15 4 0,0
13.06.2018 09:00:00 16,3 12,6 5 3 16 8 W 1022,8 17 0 0,0
13.06.2018 08:00:00 16,0 12,2 9 5 16 8 W 1022,7 16 0 -
13.06.2018 07:00:00 15,8 12,0 7 4 18 10 WZW 1022,5 18 0 0,0
13.06.2018 06:00:00 15,7 11,9 10 6 23 13 W 1022,2 17 0 0,0
13.06.2018 05:00:00 16,0 12,2 13 7 27 14 WNW 1022,5 19 0 0,0
13.06.2018 04:00:00 15,8 12,0 14 7 23 12 WNW 1022,5 19 0 0,0
13.06.2018 03:00:00 16,4 12,3 13 7 27 15 WNW 1022,8 20 0 0,0
13.06.2018 02:00:00 16,4 12,3 13 7 27 15 WNW 1022,8 20 0 -

tt = temperatuur
td = dauwpunt
ff = windsnelheid
fx = windstoten
dd = windrichting
ppp = luchtdruk
vv = zicht
sd = Zonneschijnduur
rr = neerslag

Weerstations in de omgeving